EW7112 Weather Reports


time (UTC)temp
C
wind
direction
speed
KPH
gust
KPH
rain 1hr
cm
rain 24hr
cm
rain mn
cm
humidity
%
barometer
mb
20260906183043 36 105 3.2 14.5 0.00 0.00 0.00 44 990.8
20260906181535 36 172 3.2 17.7 0.00 0.00 0.00 45 990.9
20260906180031 35 130 4.8 11.3 0.00 0.00 0.00 45 991.0
20260906174528 35 122 4.8 14.5 0.00 0.00 0.00 48 991.3
20260906173025 35 117 4.8 14.5 0.00 0.00 0.00 49 991.6
20260906171522 34 82 3.2 12.9 0.00 0.00 0.00 52 992.0
20260906170019 34 108 4.8 12.9 0.00 0.00 0.00 52 991.9
20260906164516 33 79 3.2 9.7 0.00 0.00 0.00 55 992.1
20260906163013 33 110 3.2 11.3 0.00 0.00 0.00 55 992.1
20260906161510 33 153 4.8 9.7 0.00 0.00 0.00 58 992.2
20260906160007 32 92 1.6 9.7 0.00 0.00 0.00 60 992.2
20260906154504 32 82 1.6 11.3 0.00 0.00 0.00 61 992.1
20260906153001 31 94 1.6 6.4 0.00 0.00 0.00 65 991.9
20260906151602 31 94 1.6 8.0 0.00 0.00 0.00 66 991.8
20260906150056 30 91 4.8 9.7 0.00 0.00 0.00 67 991.7
20260906144552 30 98 1.6 8.0 0.00 0.00 0.00 68 991.6
20260906143052 30 114 1.6 6.4 0.00 0.00 0.00 70 991.6
20260906141546 29 94 1.6 6.4 0.00 0.00 0.00 71 991.7
20260906140053 28 126 1.6 4.8 0.00 0.00 0.00 74 991.8
20260906134542 27 87 1.6 4.8 0.00 0.00 0.00 77 991.8
20260906133040 27 124 1.6 4.8 0.00 0.00 0.00 78 991.7
20260906131538 27 146 1.6 4.8 0.00 0.00 0.00 79 991.7
20260906130040 26 125 0.0 4.8 0.00 0.00 0.00 79 991.6
20260906124533 26 110 0.0 1.6 0.00 0.00 0.00 79 991.5
20260906123031 26 111 0.0 0.0 0.00 0.00 0.00 79 991.4
20260906121530 26 111 0.0 0.0 0.00 0.00 0.00 79 991.2
20260906120028 26 111 0.0 0.0 0.00 0.00 0.00 79 991.1
20260906114526 26 111 0.0 0.0 0.00 0.00 0.00 78 990.9
20260906113026 26 111 0.0 1.6 0.00 0.00 0.00 78 990.8
20260906111523 27 111 0.0 3.2 0.00 0.00 0.00 77 990.7
20260906110023 27 111 0.0 3.2 0.00 0.00 0.00 76 990.7
20260906104520 27 208 0.0 0.0 0.00 0.00 0.00 76 990.6
20260906103018 27 208 0.0 0.0 0.00 0.00 0.00 75 990.5
20260906101517 27 208 0.0 0.0 0.00 0.00 0.00 74 990.5
20260906100015 27 208 0.0 0.0 0.00 0.00 0.00 74 990.2
20260906094516 27 208 0.0 0.0 0.00 0.00 0.00 73 990.1
20260906093019 27 208 0.0 0.0 0.00 0.00 0.00 73 990.0
20260906091512 28 208 0.0 1.6 0.00 0.00 0.00 73 989.8
20260906090010 28 208 0.0 1.6 0.00 0.00 0.00 72 989.8
20260906084514 28 133 0.0 4.8 0.00 0.00 0.00 72 989.8
20260906083008 28 135 0.0 4.8 0.00 0.00 0.00 72 989.8
20260906081507 28 181 0.0 4.8 0.00 0.00 0.00 71 989.6
20260906080005 28 98 0.0 4.8 0.00 0.00 0.00 71 989.8
20260906074505 28 200 0.0 3.2 0.00 0.00 0.00 70 989.8
20260906073002 29 219 0.0 1.6 0.00 0.00 0.00 70 990.0
20260906071602 29 212 0.0 4.8 0.00 0.00 0.00 68 990.1
20260906070101 29 213 0.0 3.2 0.00 0.00 0.00 67 990.2
20260906064557 29 162 0.0 3.2 0.00 0.00 0.00 67 990.1
20260906063056 30 129 0.0 3.2 0.00 0.00 0.00 66 990.1
20260906061555 30 206 0.0 1.6 0.00 0.00 0.00 65 990.1
20260906060059 30 206 0.0 4.8 0.00 0.00 0.00 64 990.2
20260906054551 30 190 0.0 3.2 0.00 0.00 0.00 63 990.0
20260906053047 30 136 0.0 8.0 0.00 0.00 0.00 63 990.1
20260906051550 30 166 0.0 3.2 0.00 0.00 0.00 62 990.2
20260906050047 30 147 0.0 3.2 0.00 0.00 0.00 61 990.2
20260906044545 31 181 1.6 6.4 0.00 0.00 0.00 61 990.2
20260906043043 31 101 1.6 6.4 0.00 0.00 0.00 60 990.1
20260906041546 31 98 0.0 8.0 0.00 0.00 0.00 59 990.0
20260906040047 31 180 1.6 8.0 0.00 0.00 0.00 59 990.0
20260906034540 31 180 1.6 8.0 0.00 0.00 0.00 58 990.1
20260906033039 31 108 0.0 4.8 0.00 0.00 0.00 56 990.0
20260906031539 31 106 1.6 8.0 0.00 0.00 0.00 56 990.1
20260906030040 31 132 1.6 8.0 0.00 0.00 0.00 56 990.2
20260906024538 32 107 3.2 11.3 0.00 0.00 0.00 55 990.0
20260906023044 32 105 1.6 11.3 0.00 0.00 0.00 54 989.8
20260906021538 32 105 4.8 11.3 0.00 0.00 0.00 54 989.6
20260906020039 32 118 3.2 11.3 0.00 0.00 0.00 55 989.4
20260906014541 33 118 4.8 19.3 0.00 0.00 0.00 53 989.2
20260906013036 33 141 6.4 16.1 0.00 0.00 0.00 50 988.9
20260906011535 35 77 6.4 22.5 0.00 0.00 0.00 46 988.4
20260906010034 35 130 3.2 6.4 0.00 0.00 0.00 42 988.1
20260906004534 36 101 3.2 8.0 0.00 0.00 0.00 41 988.1
20260906003033 36 118 3.2 8.0 0.00 0.00 0.00 40 988.1
20260906001533 36 101 4.8 16.1 0.00 0.00 0.00 39 988.1
20260906000032 36 110 1.6 14.5 0.00 0.00 0.00 39 988.0
20260905234531 36 80 3.2 8.0 0.00 0.00 0.00 39 987.8
20260905233030 36 155 1.6 9.7 0.00 0.00 0.00 38 987.8
20260905231528 37 125 1.6 9.7 0.00 0.00 0.00 38 987.9
20260905230027 37 105 3.2 11.3 0.00 0.00 0.00 37 987.8
20260905224526 37 158 4.8 8.0 0.00 0.00 0.00 37 987.9
20260905223025 37 98 1.6 9.7 0.00 0.00 0.00 37 987.8
20260905221534 37 150 4.8 9.7 0.00 0.00 0.00 36 988.0
20260905220022 37 360 1.6 9.7 0.00 0.00 0.00 36 988.1
20260905214520 38 82 4.8 11.3 0.00 0.00 0.00 37 988.3
20260905213029 37 203 0.0 8.0 0.00 0.00 0.00 38 988.4
20260905211519 37 1 1.6 8.0 0.00 0.00 0.00 38 988.6
20260905210018 37 118 4.8 12.9 0.00 0.00 0.00 39 988.8
20260905204509 37 44 6.4 12.9 0.00 0.00 0.00 40 989.0
20260905203007 36 260 3.2 9.7 0.00 0.00 0.00 41 989.2
20260905201506 36 207 1.6 9.7 0.00 0.00 0.00 40 989.4
20260905200004 36 86 4.8 12.9 0.00 0.00 0.00 42 989.7
20260905194559 36 58 1.6 9.7 0.00 0.00 0.00 41 989.8
20260905193056 36 105 3.2 9.7 0.00 0.00 0.00 42 990.0
20260905191556 36 243 1.6 14.5 0.00 0.00 0.00 43 990.3
20260905190104 35 132 1.6 9.7 0.00 0.00 0.00 46 990.7
20260905184605 35 312 1.6 12.9 0.00 0.00 0.00 44 990.9